Location: Kershaw
(34.5481°N, 80.5823°W)
Time: 09:20:50
(UTC+00:00)

Altair - Pass Details

Date: 07 October 2022
Orbit: 1501 x 1682 km, 47.2° (Epoch: 30 November)

Event Time Altitude Azimuth Distance (km) Brightness Sun altitude
Rises 17:05:10 0° 299° (WNW) 4,921 9.9 49.7°
Reaches altitude 10° 17:08:42 10° 291° (WNW) 3,940 9.6 49.8°
Maximum altitude 17:17:25 34° 231° (SW) 2,508 9.6 49.7°
Drops below altitude 10° 17:26:05 10° 171° (S) 3,905 10.5 49.6°
Sets 17:29:36 0° 163° (SSE) 4,872 10.7 49.5°
